User: anonymous   Login
Location: Northam
(31.6525°S, 116.6655°E)
Time: 22:30:14
(UTC+08:00)
Language:

Transit 2A Rocket - Orbit

View from above orbital plane
View from above orbital plane
View from above satellite
View from above satellite

Ground track
Ground track

The orbit data is extracted from the following two-line orbital elements,

1    47U 60007C   21172.65432407 -.00000071  00000-0  91933-5 0  9997
2    47  66.6657 247.7788 0223509  31.4500 329.9745 14.42155333188362
Epoch (UTC): 21 June 2021 15:42:13
Eccentricity: 0.0223509
inclination: 66.6657°
perigee height: 592 km
apogee height: 911 km
right ascension of ascending node: 247.7788°
argument of perigee: 31.4500°
revolutions per day: 14.42155333
mean anomaly at epoch: 329.9745°
orbit number at epoch: 18836

The dashed part of the orbit path shows where the satellite is in the earth's shadow,  

DLR